Kelso-Longview, WA
on Thursday, January 17, 2013

Thursday
Previous Day Next Day
Daily Summary
 ActualAverage (KSPB)Record (KSPB)
Temperature
Mean Temperature °F °F  
Max Temperature 35°F °F 54°F (2011)
Min Temperature 30°F °F 26°F (2001)
Degree Days
Heating Degree Days 32    
Month to date heating degree days  
Since 1 July heating degree days  
Cooling Degree Days 0    
Month to date cooling degree days  
Year to date cooling degree days  
Moisture
Dew Point 29°F   
Average Humidity 87    
Maximum Humidity 93    
Minimum Humidity 81    
Precipitation
Precipitation 0.00 in in 1.59 in (1999)
Month to date precipitation  
Year to date precipitation  
Wind
Wind Speed 3 mph   
Max Wind Speed 8 mph   
Max Gust Speed mph   
Visibility 7 miles   
Events     

Key: T is trace of precipitation, MM is missing value
Source: NWS Daily Summary
Time(PST)TemperatureDew PointHumidity Pressure Visibility Wind DirectionWind SpeedGust SpeedPrecipitationEvents Conditions
12:15 AM 33.8°F 30.2°F 87% 30.51 in 5.0 miles Calm Calm - N/A   Overcast
12:35 AM 33.8°F 30.2°F 87% 30.52 in 7.0 miles East 3.5 mph - N/A   Overcast
12:55 AM 33.8°F 30.2°F 87% 30.51 in 7.0 miles Calm Calm - N/A   Overcast
1:35 AM 32.0°F 30.2°F 93% 30.51 in 6.0 miles NNE 3.5 mph - N/A   Overcast
1:55 AM 32.0°F 30.2°F 93% 30.51 in 7.0 miles NNW 5.8 mph - N/A   Overcast
2:15 AM 30.2°F 28.4°F 93% 30.51 in 10.0 miles North 6.9 mph - N/A   Overcast
2:35 AM 30.2°F 28.4°F 93% 30.52 in 10.0 miles NNE 8.1 mph - N/A   Overcast
2:55 AM 30.2°F 28.4°F 93% 30.52 in 10.0 miles NNW 4.6 mph - N/A   Overcast
3:15 AM 30.2°F 26.6°F 86% 30.51 in 10.0 miles WNW 3.5 mph - N/A   Overcast
3:35 AM 30.2°F 26.6°F 86% 30.50 in 10.0 miles NW 3.5 mph - N/A   Overcast
3:55 AM 30.2°F 28.4°F 93% 30.49 in 10.0 miles Calm Calm - N/A   Overcast
4:15 AM 30.2°F 28.4°F 93% 30.49 in 10.0 miles Calm Calm - N/A   Overcast
4:35 AM 30.2°F 28.4°F 93% 30.48 in 10.0 miles Calm Calm - N/A   Overcast
4:55 AM 30.2°F 28.4°F 93% 30.47 in 3.0 miles ESE 4.6 mph - N/A   Overcast
5:15 AM 30.2°F 28.4°F 93% 30.47 in 1.8 miles East 3.5 mph - N/A   Overcast
5:35 AM 30.2°F 28.4°F 93% 30.47 in 5.0 miles Calm Calm - N/A   Overcast
5:55 AM 30.2°F 28.4°F 93% 30.47 in 3.0 miles SE 4.6 mph - N/A   Overcast
6:15 AM 30.2°F 28.4°F 93% 30.46 in 10.0 miles ESE 5.8 mph - N/A   Overcast
6:35 AM 30.2°F 28.4°F 93% 30.46 in 10.0 miles Calm Calm - N/A   Overcast
6:55 AM 30.2°F 28.4°F 93% 30.46 in 5.0 miles ESE 3.5 mph - N/A   Overcast
7:15 AM 32.0°F 28.4°F 87% 30.46 in 8.0 miles ESE 3.5 mph - N/A   Overcast
7:35 AM 30.2°F 28.4°F 93% 30.46 in 7.0 miles SE 6.9 mph - N/A   Overcast
7:55 AM 30.2°F 28.4°F 93% 30.46 in 9.0 miles East 3.5 mph - N/A   Overcast
8:15 AM 32.0°F 28.4°F 87% 30.46 in 10.0 miles SE 3.5 mph - N/A   Overcast
8:35 AM 32.0°F 28.4°F 87% 30.46 in 10.0 miles ESE 4.6 mph - N/A   Overcast
8:55 AM 32.0°F 28.4°F 87% 30.47 in 10.0 miles ESE 6.9 mph - N/A   Overcast
9:15 AM 32.0°F 28.4°F 87% 30.47 in 10.0 miles East 4.6 mph - N/A   Overcast
9:35 AM 32.0°F 28.4°F 87% 30.47 in 9.0 miles East 3.5 mph - N/A   Overcast
9:55 AM 32.0°F 28.4°F 87% 30.46 in 9.0 miles ESE 4.6 mph - N/A   Overcast
10:15 AM 33.8°F 28.4°F 81% 30.47 in 10.0 miles East 3.5 mph - N/A   Overcast
10:35 AM 33.8°F 28.4°F 81% 30.46 in 10.0 miles East 3.5 mph - N/A   Overcast
10:55 AM 33.8°F 28.4°F 81% 30.46 in 10.0 miles Calm Calm - N/A   Overcast
11:15 AM 33.8°F 28.4°F 81% 30.45 in 10.0 miles ESE 3.5 mph - N/A   Overcast
11:35 AM 33.8°F 28.4°F 81% 30.44 in 10.0 miles Calm Calm - N/A   Overcast
11:55 AM 33.8°F 30.2°F 87% 30.43 in 10.0 miles South 4.6 mph - N/A   Overcast
12:15 PM 33.8°F 30.2°F 87% 30.42 in 10.0 miles Calm Calm - N/A   Overcast
12:35 PM 33.8°F 30.2°F 87% 30.42 in 8.0 miles South 4.6 mph - N/A   Overcast
12:55 PM 33.8°F 30.2°F 87% 30.41 in 8.0 miles Calm Calm - N/A   Overcast
1:15 PM 35.6°F 30.2°F 81% 30.40 in 9.0 miles SSE 4.6 mph - N/A   Overcast
1:35 PM 35.6°F 30.2°F 81% 30.39 in 9.0 miles SSE 5.8 mph - N/A   Overcast
1:55 PM 35.6°F 30.2°F 81% 30.38 in 10.0 miles SSE 6.9 mph - N/A   Overcast
2:15 PM 35.6°F 30.2°F 81% 30.37 in 10.0 miles SSE 4.6 mph - N/A   Overcast
2:35 PM 35.6°F 32.0°F 87% 30.37 in 10.0 miles SE 6.9 mph - N/A   Overcast
2:55 PM 35.6°F 32.0°F 87% 30.36 in 9.0 miles SE 6.9 mph - N/A   Overcast
3:15 PM 35.6°F 30.2°F 81% 30.35 in 10.0 miles ESE 8.1 mph - N/A   Overcast
3:35 PM 35.6°F 30.2°F 81% 30.35 in 7.0 miles SSE 8.1 mph - N/A   Overcast
3:55 PM 35.6°F 30.2°F 81% 30.35 in 7.0 miles SSE 5.8 mph - N/A   Overcast
4:15 PM 35.6°F 30.2°F 81% 30.35 in 7.0 miles SSE 8.1 mph - N/A   Overcast
4:35 PM 35.6°F 30.2°F 81% 30.35 in 6.0 miles SE 8.1 mph - N/A   Overcast
4:55 PM 35.6°F 30.2°F 81% 30.35 in 5.0 miles SE 5.8 mph - N/A   Overcast
5:15 PM 35.6°F 30.2°F 81% 30.35 in 5.0 miles SE 5.8 mph - N/A   Overcast
5:35 PM 35.6°F 30.2°F 81% 30.34 in 7.0 miles SSE 6.9 mph - N/A   Overcast
5:55 PM 35.6°F 30.2°F 81% 30.34 in 7.0 miles ESE 3.5 mph - N/A   Overcast
6:15 PM 33.8°F 30.2°F 87% 30.34 in 8.0 miles Calm Calm - N/A   Overcast
6:55 PM 33.8°F 30.2°F 87% 30.34 in 7.0 miles East 3.5 mph - N/A   Overcast
7:15 PM 33.8°F 30.2°F 87% 30.34 in 4.0 miles Calm Calm - N/A   Overcast
7:35 PM 33.8°F 30.2°F 87% 30.34 in 3.0 miles Calm Calm - N/A   Overcast
7:55 PM 33.8°F 30.2°F 87% 30.35 in 5.0 miles Calm Calm - N/A   Overcast
8:15 PM 33.8°F 30.2°F 87% 30.34 in 10.0 miles Calm Calm - N/A   Overcast
8:35 PM 33.8°F 28.4°F 81% 30.34 in 10.0 miles Calm Calm - N/A   Overcast
8:55 PM 32.0°F 30.2°F 93% 30.34 in 5.0 miles Calm Calm - N/A   Overcast
9:15 PM 32.0°F 30.2°F 93% 30.34 in 3.0 miles Calm Calm - N/A   Overcast
9:35 PM 32.0°F 30.2°F 93% 30.34 in 1.8 miles Calm Calm - N/A   Overcast
9:55 PM 32.0°F 30.2°F 93% 30.34 in 0.2 miles Calm Calm - N/A   Overcast
10:15 PM 30.2°F 28.4°F 93% 30.34 in 0.2 miles Calm Calm - N/A   Overcast
10:35 PM 30.2°F 28.4°F 93% 30.33 in 0.2 miles Calm Calm - N/A   Overcast
10:55 PM 32.0°F 28.4°F 87% 30.33 in 3.0 miles SE 3.5 mph - N/A   Overcast
11:15 PM 32.0°F 28.4°F 87% 30.33 in 2.0 miles SE 4.6 mph - N/A   Overcast
11:35 PM 32.0°F 30.2°F 93% 30.33 in 1.5 miles SE 5.8 mph - N/A   Overcast
11:55 PM 32.0°F 28.4°F 87% 30.32 in 2.0 miles SE 4.6 mph - N/A   Overcast
Moon Phase
Jan. 17 Jan. 18 Jan. 26 Feb. 03 Feb. 10
Sunrise:07:48 AM (PST) Moon Rise:10:33 AM (PST)1/17
Sunset:04:55 PM (PST) Moon Set:No Moon Set/

Copyright © 2014 The Weather Underground, Inc.